Regional Weather Roundup
Issued by NWS Albany, NY

Home | Current Version | Previous Version | Graphics & Text | Print | Product List | Glossary Off
Versions: 1 2 3 4 5 6 7 8 9 10 11 12 13 14 15 16 17 18 19 20 21 22 23 24 25 26 27 28 29 30 31 32 33 34 35 36 37 38 39 40 41 42 43 44 45 46 47 48 49 50

000
ASUS41 KALY 211510
RWRALY

NEW YORK STATE HOURLY WEATHER ROUNDUP
NATIONAL WEATHER SERVICE ALBANY NY
1100 AM EDT THU AUG 21 2014

NOTE: "FAIR" INDICATES FEW OR NO CLOUDS BELOW 12,000 FEET WITH NO
SIGNIFICANT WEATHER AND/OR NO OBSTRUCTIONS TO VISIBILITY.

NYZ032-033-038>043-046>054-057>066-NYZ062>081-211600-
EAST


CITY           SKY/WX    TMP DP  RH WIND       PRES   REMARKS
ALBANY         CLOUDY    70  63  78 S10       30.04S
GLENS FALLS    CLOUDY    67  64  90 E3        30.04F
POUGHKEEPSIE   CLOUDY    73  65  75 VRB5      30.05F
NEWBURGH       CLOUDY    75  61  60 SW7       30.08S
MONTGOMERY     CLOUDY    73  64  73 W3        30.06S
WHITE PLAINS   PTSUNNY   74  61  63 SE7       30.07F
ISLIP          CLOUDY    75  61  61 CALM      30.06S
NEW YORK CITY  PTSUNNY   78  61  55 S8        30.05F
CENTRAL PARK   MOSUNNY   77  62  59 VRB3      30.08F
$$

NYZ005>009-017-018-044>046-055-056-211600-
CENTRAL


CITY           SKY/WX    TMP DP  RH WIND       PRES   REMARKS
FULTON         CLOUDY    71  67  87 S6        29.98S
SYRACUSE       TSTM      66  65  96 S8        29.99R
ROME           CLOUDY    74  70  87 SE9       30.01S
ELMIRA         MOSUNNY   78  69  73 W10       30.00S
BINGHAMTON     PTSUNNY   72  67  84 SW8       30.04S
MONTICELLO     CLOUDY    66  64  94 S6        30.09F
$$

NYZ026>034-041>043-211600-
NORTH


CITY           SKY/WX    TMP DP  RH WIND       PRES   REMARKS
WATERTOWN      MOSUNNY   77  66  68 SW13      29.95F
FORT DRUM      NOT AVBL
MASSENA        PTSUNNY   73  68  84 E10       29.99S
SARANAC LAKE   PTSUNNY   70  62  76 S7        30.04R
PLATTSBURGH    CLOUDY    69  65  86 SE13      30.03S
$$

NYZ001>004-010>016-019>021-211600-
WEST


CITY           SKY/WX    TMP DP  RH WIND       PRES   REMARKS
NIAGARA FALLS  PTSUNNY   75  64  68 W10       29.96S
BUFFALO        MOSUNNY   75  66  73 SW13      29.98R
DUNKIRK        MOSUNNY   76  66  71 W13       29.99S
JAMESTOWN      MOSUNNY   72  64  78 SW8       30.05R
WELLSVILLE     MOSUNNY   74  63  68 SW9       30.07S
ROCHESTER      PTSUNNY   77  66  68 W12       29.97R
PENN YAN       MOSUNNY   77  68  73 S7        30.00S
$$

             KEY
       WCI = WIND CHILL INDEX
       VSB = VISIBILITY
       HX  = HEAT INDEX
$$



USA.gov is the U.S. government's official web portal to all federal, state and local government web resources and services.